Location: Ciserano
(45.5833°N, 9.6000°E)
Time: 07:52:25
(UTC+00:00)

Cosmos 1295 Rocket - Pass Details

Date: 20 April 2021
Orbit: 944 x 993 km, 82.9° (Epoch: 13 May)

Event Time Altitude Azimuth Distance (km) Brightness Sun altitude
Rises 01:43:36 0° 335° (NNW) 3,679 7.9 -24.4°
Reaches altitude 10° 01:47:15 10° 314° (NW) 2,736 6.9 -24.0°
Enters shadow 01:50:05 15° 287° (WNW) 2,394 6.3 -23.7°
